sat.trackr.live / text

‹ back to catalog

STARLINK-1226

NORAD 45229 · 2020-012BD

PAYLOAD ACTIVE UNKNOWN

§ Identity

Operator
Country
US
Launch date
2020-02-17
Launch site
AFETR
Launch vehicle
Mass (kg)
RCS (m²)

Purposes: comms

External: N2YO · Heavens-Above · Gunter

§ Orbital elements

Epoch: 2026-05-24T23:50:07.010016Z

Period
93.37 min
Inclination
53.1585°
Eccentricity
0.0002734
Mean motion
15.42276102 rev/d
Perigee alt
437.5 km
Apogee alt
441.3 km
Semi-major
6,817.5 km
B*
1.1068e-3
RAAN
0.1462°
Arg perigee
157.2425°
Mean anomaly
202.8702°
Rev number
34,715

§ Raw data

STARLINK-12261 45229U 20012BD  26144.99313669  .00048249  00000+0  11068-2 0  99942 45229  53.1585   0.1462 0002734 157.2425 202.8702 15.42276102347157

JSON: /api/v1/satellites/45229 · /tle

For live sub-satellite position, see the globe view (requires WebGL).

§ Visibility from observer

Set your observer location to see the next 7 days of passes ≥ 10°. The values pass through the URL so the page stays shareable.

No JS? Fill the form by hand. The geolocation button needs JavaScript.